Regional Weather Roundup
Issued by NWS

Home | Current Version | Previous Version | Text Only | Print | Product List | Glossary On
Versions: 1 2 3 4 5 6 7 8 9 10 11 12 13 14 15 16 17 18 19 20 21 22 23 24 25 26 27 28 29 30 31 32 33 34 35 36 37 38 39 40 41 42 43 44 45 46 47 48 49 50
000
ASUS42 KKEY 070610
RWRKEY

FLORIDA REGIONAL WEATHER ROUNDUP FOR THE FLORIDA KEYS
NATIONAL WEATHER SERVICE KEY WEST FLORIDA
200 AM EDT THU MAY 07 2015

...SOUTH FLORIDA AND THE KEYS...

CITY           SKY/WX    TMP DP  RH WIND       PRES   REMARKS
FORT MYERS     CLOUDY    74  69  85 N5        30.01F
SW REGIONAL AP CLEAR     70  65  84 NE6       30.02F
NAPLES         CLEAR     76  69  79 N5        30.01F
MIAMI          CLEAR     73  67  81 N3        30.03S
WEST KENDALL   CLEAR     67  66  97 NW3       30.03F
HOMESTEAD      NOT AVBL
MARATHON       CLEAR     75  70  84 CALM      30.01F
BOCA CHICA NAS CLEAR     76  70  82 E7        30.02F
KEY WEST INTL  CLEAR     76  71  85 NE5       30.02F

...INTERNATIONAL WEATHER...

CITY           SKY/WX    TMP DP  RH WIND       PRES   REMARKS
NASSAU BAHAMAS PTCLDY    73  70  88 CALM      30.03F
CANCUN MEXICO  PTCLDY    79  75  89 E7        29.96F
COZUMEL MEXICO CLEAR     73  72  94 CALM      29.95F

ADJACENT COASTAL WATERS...

STATION/POSITION TIME  SKY/WX   TEMP    WIND        PRES    WAVE
                                AIR SEA DIR/SP/G            HT/PER
                 (UTC)          (F)     (DEG/KT/KT) (MB)    (FT/S)
PULASKI SHOAL LI 0500            78      80/  7/  7 1016.8F
SAND KEY         0550            78      90/  9/ 10 1016.4F
SOMBRERO KEY     0600            77     130/  5/  6 1016.9F
LONG KEY         0500            77 78  110/  5/  6 1017.7F
MOLASSES REEF    0600            77 79   60/  4/  4 1016.3F
FOWEY ROCKS      NOT AVBL

$$


USA.gov is the U.S. government's official web portal to all federal, state and local government web resources and services.